sat.trackr.live / text

‹ back to catalog

STARLINK-33659

NORAD 63445 · 2025-069N

PAYLOAD ACTIVE UNKNOWN

§ Identity

Operator
Country
US
Launch date
2025-04-04
Launch site
AFWTR
Launch vehicle
Mass (kg)
RCS (m²)

Purposes: comms

External: N2YO · Heavens-Above · Gunter

§ Orbital elements

Epoch: 2026-05-25T03:40:38.989056Z

Period
93.37 min
Inclination
53.1576°
Eccentricity
0.0000860
Mean motion
15.42180861 rev/d
Perigee alt
439.1 km
Apogee alt
440.3 km
Semi-major
6,817.8 km
B*
6.8165e-4
RAAN
145.0384°
Arg perigee
74.7434°
Mean anomaly
285.3667°
Rev number
6,509

§ Raw data

STARLINK-336591 63445U 25069N   26145.15322904  .00029385  00000+0  68165-3 0  99932 63445  53.1576 145.0384 0000860  74.7434 285.3667 15.42180861 65092

JSON: /api/v1/satellites/63445 · /tle

For live sub-satellite position, see the globe view (requires WebGL).

§ Visibility from observer

Set your observer location to see the next 7 days of passes ≥ 10°. The values pass through the URL so the page stays shareable.

No JS? Fill the form by hand. The geolocation button needs JavaScript.